| time (UTC) | temp F | wind direction | speed MPH | gust MPH | rain 1hr in | rain 24hr in | rain mn in | humidity % | barometer mb |
| 20260509134510 | 69 | 287 | 1.0 | 6.0 | 0.00 | 0.01 | 0.01 | 57 | 1017.5 |
| 20260509133012 | 67 | 230 | 1.0 | 3.0 | 0.00 | 0.01 | 0.01 | 61 | 1017.7 |
| 20260509131503 | 65 | 254 | 1.0 | 3.0 | 0.00 | 0.01 | 0.01 | 63 | 1017.9 |
| 20260509130002 | 65 | 254 | 1.0 | 3.0 | 0.00 | 0.01 | 0.01 | 61 | 1018.3 |
| 20260509124500 | 66 | 254 | 1.0 | 3.0 | 0.00 | 0.01 | 0.01 | 60 | 1018.3 |
| 20260509123058 | 66 | 215 | 0.0 | 4.0 | 0.00 | 0.01 | 0.01 | 58 | 1018.4 |
| 20260509121557 | 65 | 101 | 1.0 | 5.0 | 0.00 | 0.01 | 0.01 | 59 | 1018.6 |
| 20260509120101 | 66 | 63 | 1.0 | 4.0 | 0.00 | 0.01 | 0.01 | 63 | 1018.6 |
| 20260509114555 | 66 | 192 | 0.0 | 3.0 | 0.00 | 0.01 | 0.01 | 60 | 1018.7 |
| 20260509113103 | 66 | 46 | 2.0 | 4.0 | 0.00 | 0.01 | 0.01 | 60 | 1018.8 |
| 20260509111554 | 66 | 55 | 2.0 | 5.0 | 0.00 | 0.01 | 0.01 | 58 | 1018.9 |
| 20260509110050 | 65 | 283 | 0.0 | 4.0 | 0.00 | 0.01 | 0.01 | 62 | 1019.0 |
| 20260509104548 | 64 | 236 | 1.0 | 3.0 | 0.00 | 0.01 | 0.01 | 62 | 1019.3 |
| 20260509103045 | 64 | 306 | 0.0 | 2.0 | 0.00 | 0.01 | 0.01 | 62 | 1019.4 |
| 20260509101545 | 64 | 202 | 1.0 | 7.0 | 0.00 | 0.01 | 0.01 | 66 | 1019.5 |
| 20260509100041 | 63 | 180 | 0.0 | 3.0 | 0.00 | 0.01 | 0.01 | 67 | 1019.5 |
| 20260509094538 | 62 | 217 | 0.0 | 3.0 | 0.00 | 0.01 | 0.01 | 66 | 1019.7 |
| 20260509093036 | 60 | 209 | 1.0 | 5.0 | 0.00 | 0.01 | 0.01 | 70 | 1019.8 |
| 20260509091535 | 61 | 145 | 1.0 | 4.0 | 0.00 | 0.01 | 0.01 | 67 | 1019.8 |
| 20260509090031 | 60 | 157 | 1.0 | 5.0 | 0.00 | 0.01 | 0.01 | 71 | 1019.9 |
| 20260509084534 | 59 | 181 | 1.0 | 5.0 | 0.00 | 0.01 | 0.01 | 73 | 1020.0 |
| 20260509083034 | 58 | 217 | 2.0 | 4.0 | 0.00 | 0.01 | 0.01 | 73 | 1019.9 |
| 20260509081528 | 58 | 239 | 1.0 | 4.0 | 0.00 | 0.01 | 0.01 | 74 | 1020.0 |
| 20260509080033 | 57 | 239 | 1.0 | 4.0 | 0.00 | 0.01 | 0.01 | 75 | 1020.0 |
| 20260509074519 | 57 | 98 | 0.0 | 3.0 | 0.00 | 0.01 | 0.01 | 75 | 1019.9 |
| 20260509073016 | 55 | 48 | 0.0 | 2.0 | 0.00 | 0.01 | 0.01 | 78 | 1019.9 |
| 20260509071511 | 54 | 48 | 0.0 | 2.0 | 0.00 | 0.01 | 0.01 | 83 | 1020.0 |
| 20260509070009 | 52 | 48 | 0.0 | 2.0 | 0.00 | 0.01 | 0.01 | 86 | 1020.3 |
| 20260509064505 | 50 | 46 | 0.0 | 2.0 | 0.00 | 0.01 | 0.01 | 90 | 1020.1 |
| 20260509063001 | 47 | 48 | 0.0 | 1.0 | 0.00 | 0.01 | 0.01 | 91 | 1019.9 |
| 20260509061616 | 47 | 48 | 0.0 | 1.0 | 0.00 | 0.01 | 0.01 | 91 | 1019.9 |
| 20260509060138 | 46 | 48 | 0.0 | 1.0 | 0.00 | 0.01 | 0.01 | 91 | 1019.9 |
| 20260509054603 | 45 | 48 | 0.0 | 1.0 | 0.00 | 0.01 | 0.01 | 91 | 1019.8 |
| 20260509053058 | 44 | 48 | 0.0 | 2.0 | 0.00 | 0.01 | 0.01 | 91 | 1019.7 |
| 20260509051559 | 43 | 48 | 0.0 | 3.0 | 0.00 | 0.01 | 0.01 | 91 | 1019.5 |
| 20260509050134 | 43 | 48 | 1.0 | 3.0 | 0.00 | 0.01 | 0.01 | 91 | 1019.7 |
| 20260509044603 | 42 | 48 | 0.0 | 2.0 | 0.00 | 0.01 | 0.01 | 91 | 1019.6 |
| 20260509043056 | 41 | 48 | 0.0 | 2.0 | 0.01 | 0.01 | 0.01 | 90 | 1019.6 |
| 20260509041554 | 41 | 48 | 0.0 | 3.0 | 0.01 | 0.01 | 0.01 | 90 | 1019.5 |
| 20260509040058 | 41 | 48 | 0.0 | 1.0 | 0.01 | 0.01 | 0.01 | 90 | 1019.6 |
| 20260509034553 | 41 | 48 | 0.0 | 1.0 | 0.00 | 0.00 | 0.00 | 90 | 1019.5 |
| 20260509033052 | 41 | 48 | 0.0 | 0.0 | 0.00 | 0.00 | 0.00 | 90 | 1019.5 |
| 20260509031551 | 42 | 48 | 0.0 | 3.0 | 0.00 | 0.00 | 0.00 | 90 | 1019.4 |
| 20260509030049 | 42 | 48 | 1.0 | 3.0 | 0.00 | 0.00 | 0.00 | 90 | 1019.5 |
| 20260509024547 | 42 | 68 | 0.0 | 2.0 | 0.00 | 0.00 | 0.00 | 89 | 1019.5 |
| 20260509023058 | 42 | 68 | 0.0 | 2.0 | 0.00 | 0.00 | 0.00 | 89 | 1019.4 |
| 20260509021546 | 42 | 43 | 0.0 | 3.0 | 0.00 | 0.00 | 0.00 | 89 | 1019.2 |
| 20260509020044 | 42 | 22 | 0.0 | 3.0 | 0.00 | 0.00 | 0.00 | 89 | 1019.1 |
| 20260509014545 | 43 | 22 | 0.0 | 2.0 | 0.00 | 0.00 | 0.00 | 89 | 1019.2 |
| 20260509013043 | 43 | 22 | 0.0 | 2.0 | 0.00 | 0.00 | 0.00 | 89 | 1019.3 |
| 20260509011541 | 43 | 22 | 0.0 | 0.0 | 0.00 | 0.00 | 0.00 | 88 | 1019.4 |
| 20260509010041 | 43 | 22 | 0.0 | 0.0 | 0.00 | 0.00 | 0.00 | 88 | 1019.3 |
| 20260509004540 | 43 | 22 | 0.0 | 0.0 | 0.00 | 0.00 | 0.00 | 88 | 1019.3 |
| 20260509003050 | 43 | 22 | 0.0 | 0.0 | 0.00 | 0.00 | 0.00 | 87 | 1019.3 |
| 20260509001537 | 43 | 22 | 0.0 | 0.0 | 0.00 | 0.00 | 0.00 | 86 | 1019.2 |
| 20260509000041 | 44 | 22 | 0.0 | 0.0 | 0.00 | 0.00 | 0.00 | 86 | 1019.2 |
| 20260508234537 | 44 | 22 | 0.0 | 0.0 | 0.00 | 0.00 | 0.00 | 86 | 1019.5 |
| 20260508233029 | 45 | 22 | 0.0 | 0.0 | 0.00 | 0.00 | 0.00 | 86 | 1019.4 |
| 20260508231527 | 45 | 22 | 0.0 | 0.0 | 0.00 | 0.00 | 0.00 | 85 | 1019.5 |
| 20260508230026 | 46 | 22 | 0.0 | 1.0 | 0.00 | 0.00 | 0.00 | 85 | 1019.6 |
| 20260508224524 | 46 | 22 | 0.0 | 1.0 | 0.00 | 0.00 | 0.00 | 84 | 1019.6 |
| 20260508223026 | 47 | 22 | 0.0 | 1.0 | 0.00 | 0.00 | 0.00 | 84 | 1019.7 |
| 20260508221519 | 48 | 22 | 0.0 | 1.0 | 0.00 | 0.00 | 0.00 | 83 | 1019.6 |
| 20260508220017 | 48 | 350 | 0.0 | 4.0 | 0.00 | 0.00 | 0.00 | 83 | 1019.4 |
| 20260508214516 | 48 | 29 | 0.0 | 2.0 | 0.00 | 0.00 | 0.00 | 82 | 1019.4 |
| 20260508213022 | 49 | 40 | 0.0 | 3.0 | 0.00 | 0.00 | 0.00 | 82 | 1019.2 |
| 20260508211515 | 49 | 53 | 0.0 | 2.0 | 0.00 | 0.00 | 0.00 | 81 | 1019.3 |
| 20260508210015 | 50 | 73 | 0.0 | 2.0 | 0.00 | 0.00 | 0.00 | 80 | 1019.4 |
| 20260508204513 | 50 | 48 | 1.0 | 4.0 | 0.00 | 0.00 | 0.00 | 79 | 1019.4 |
| 20260508203015 | 51 | 57 | 1.0 | 2.0 | 0.00 | 0.00 | 0.00 | 78 | 1019.3 |
| 20260508201519 | 51 | 30 | 1.0 | 4.0 | 0.00 | 0.00 | 0.00 | 78 | 1019.3 |
| 20260508200019 | 52 | 51 | 1.0 | 3.0 | 0.00 | 0.00 | 0.00 | 77 | 1019.2 |
| 20260508194510 | 52 | 65 | 1.0 | 4.0 | 0.00 | 0.00 | 0.00 | 76 | 1019.1 |
| 20260508193016 | 53 | 59 | 1.0 | 3.0 | 0.00 | 0.00 | 0.00 | 75 | 1018.9 |
| 20260508191514 | 53 | 69 | 0.0 | 3.0 | 0.00 | 0.00 | 0.00 | 74 | 1018.8 |
| 20260508190008 | 54 | 56 | 0.0 | 2.0 | 0.00 | 0.00 | 0.00 | 72 | 1018.6 |
| 20260508184508 | 55 | 59 | 0.0 | 2.0 | 0.00 | 0.00 | 0.00 | 70 | 1018.3 |
| 20260508183007 | 56 | 53 | 0.0 | 3.0 | 0.00 | 0.00 | 0.00 | 68 | 1018.1 |
| 20260508181505 | 57 | 290 | 0.0 | 3.0 | 0.00 | 0.00 | 0.00 | 67 | 1017.8 |
| 20260508180006 | 58 | 64 | 0.0 | 3.0 | 0.00 | 0.00 | 0.00 | 66 | 1017.6 |
| 20260508174507 | 59 | 360 | 0.0 | 5.0 | 0.00 | 0.00 | 0.00 | 65 | 1017.4 |
| 20260508173006 | 59 | 67 | 1.0 | 5.0 | 0.00 | 0.00 | 0.00 | 63 | 1017.3 |
| 20260508171508 | 61 | 78 | 1.0 | 3.0 | 0.00 | 0.00 | 0.00 | 62 | 1017.4 |
| 20260508170004 | 61 | 49 | 1.0 | 4.0 | 0.00 | 0.00 | 0.00 | 60 | 1017.2 |
| 20260508164503 | 61 | 49 | 1.0 | 5.0 | 0.00 | 0.00 | 0.00 | 60 | 1017.3 |
| 20260508163002 | 61 | 350 | 2.0 | 5.0 | 0.00 | 0.00 | 0.00 | 61 | 1017.3 |
| 20260508161503 | 61 | 132 | 2.0 | 4.0 | 0.00 | 0.00 | 0.00 | 59 | 1017.3 |
| 20260508160001 | 61 | 42 | 1.0 | 3.0 | 0.00 | 0.00 | 0.00 | 59 | 1017.3 |
| 20260508154600 | 61 | 78 | 1.0 | 5.0 | 0.00 | 0.00 | 0.00 | 60 | 1017.3 |
| 20260508153059 | 61 | 308 | 0.0 | 3.0 | 0.00 | 0.00 | 0.00 | 58 | 1017.3 |
| 20260508151608 | 61 | 306 | 1.0 | 4.0 | 0.00 | 0.00 | 0.00 | 59 | 1017.4 |
| 20260508150058 | 61 | 285 | 0.0 | 3.0 | 0.00 | 0.00 | 0.00 | 58 | 1017.6 |
| 20260508144557 | 61 | 343 | 0.0 | 5.0 | 0.00 | 0.00 | 0.00 | 58 | 1017.7 |
| 20260508143056 | 61 | 160 | 1.0 | 3.0 | 0.00 | 0.00 | 0.00 | 58 | 1017.7 |
| 20260508141556 | 63 | 225 | 0.0 | 4.0 | 0.00 | 0.00 | 0.00 | 55 | 1017.8 |
| 20260508140057 | 64 | 283 | 2.0 | 4.0 | 0.00 | 0.00 | 0.00 | 54 | 1017.9 |